Date String (YYYY-MM-DD hh:mm:ss) UTC,Instrument flags,absolute air pressure of the measurement (hPa),sample flow rate (lpm),inlet stack bypass flow (lpm),air temperature of the measurement (°C),ambient temperature measured by the external sensor (°C),aerosol sample conditioner tube jacket temperature (°C),OPC LED temperature (°C),internal box temperature (°C),relative humidity of the measurement (%),span deviation,mass concentration of particles derived from Lorenz-Mie calculation of OPC scattering (μg/m³),mass concentration of particles derived from Lorenz-Mie calculation of OPC scattering (μg/m³),mass concentration of particles derived from Lorenz-Mie calculation of OPC scattering (μg/m³)
DateTimeUTC,F1_M11,P_M11,Q1_M11,Q2_M11,T1_M11,T2_M11,T3_M11,T4_M11,T5_M11,U1_M11,ZSPAN_M11,X2_M11,X0_M11,X1_M11
2023-06-28 14:00:00,SystemResetWarning,0830.5,5.00,000.00,030.1,028.7,000.0,038.5,031.6,31.8,0001.2,0009.02,0019.33,0007.55
2023-06-28 14:01:00,SystemResetWarning,0830.5,4.99,000.00,030.1,028.7,000.0,038.6,031.6,32.2,0001.4,0008.95,0019.32,0007.53
2023-06-28 14:02:00,SystemResetWarning,0830.4,4.99,000.00,030.1,028.7,000.0,038.6,031.6,32.4,0001.6,0008.93,0019.40,0007.51
2023-06-28 14:03:00,SystemResetWarning,0830.5,5.00,000.00,030.1,028.1,000.0,038.6,031.8,32.4,0001.7,0008.98,0019.39,0007.52
2023-06-28 14:04:00,SystemResetWarning,0830.5,5.00,000.00,030.1,025.9,000.0,038.5,031.7,32.0,0001.9,0008.94,0017.98,0007.50
2023-06-28 14:05:00,SystemResetWarning,0830.5,5.01,000.00,030.1,024.9,000.0,038.4,031.6,31.5,0002.1,0009.01,0017.94,0007.50
2023-06-28 14:06:00,SystemResetWarning,0830.5,5.01,000.00,030.0,025.1,000.0,038.4,031.3,31.8,0001.8,0009.02,0017.39,0007.49
2023-06-28 14:07:00,SystemResetWarning,0830.6,5.00,000.00,029.9,025.5,000.0,038.4,031.1,32.7,0001.5,0008.99,0017.49,0007.46
2023-06-28 14:08:00,SystemResetWarning,0830.6,4.99,000.00,029.8,026.0,000.0,038.4,031.1,32.9,0001.3,0009.02,0017.50,0007.46
2023-06-28 14:09:00,SystemResetWarning,0830.4,4.99,000.00,029.8,026.4,000.0,038.4,031.1,32.6,0001.9,0008.99,0017.32,0007.45
2023-06-28 14:10:00,SystemResetWarning,0830.6,4.99,000.00,029.8,026.8,000.0,038.4,031.1,32.3,0002.0,0008.99,0017.93,0007.44
2023-06-28 14:11:00,SystemResetWarning,0830.7,5.01,000.00,029.8,027.1,000.0,038.4,031.2,32.5,0002.1,0009.00,0019.28,0007.44
2023-06-28 14:12:00,SystemResetWarning,0830.5,5.01,000.00,029.8,027.4,000.0,038.4,031.2,32.0,0002.1,0009.03,0018.38,0007.45
2023-06-28 14:13:00,SystemResetWarning,0830.4,4.99,000.00,029.8,027.6,000.0,038.4,031.3,31.7,0002.0,0009.07,0018.71,0007.45
2023-06-28 14:14:00,SystemResetWarning,0830.4,4.99,000.00,029.8,027.8,000.0,038.4,031.3,32.2,0001.8,0009.06,0019.11,0007.43
2023-06-28 14:15:00,SystemResetWarning,0830.5,5.00,000.00,029.8,027.9,000.0,038.4,031.3,31.6,0001.6,0009.02,0019.15,0007.41
2023-06-28 14:16:00,SystemResetWarning,0830.5,5.00,000.00,029.8,028.1,000.0,038.4,031.3,31.6,0001.5,0008.95,0019.31,0007.39
2023-06-28 14:17:00,SystemResetWarning,0830.4,5.01,000.00,029.9,028.2,000.0,038.4,031.4,31.7,0002.0,0008.90,0019.85,0007.39
2023-06-28 14:18:00,SystemResetWarning,0830.5,5.01,000.00,029.9,028.3,000.0,038.4,031.4,32.2,0002.3,0008.90,0019.81,0007.39
2023-06-28 14:19:00,SystemResetWarning,0830.5,4.99,000.00,029.9,028.3,000.0,038.4,031.4,32.8,0001.9,0008.89,0019.60,0007.38
2023-06-28 14:20:00,SystemResetWarning,0830.5,4.99,000.00,029.9,028.4,000.0,038.5,031.5,32.8,0001.8,0008.84,0019.16,0007.36
2023-06-28 14:21:00,SystemResetWarning,0830.6,4.99,000.00,030.0,028.5,000.0,038.5,031.5,32.4,0002.1,0008.79,0018.88,0007.34
2023-06-28 14:22:00,SystemResetWarning,0830.6,5.00,000.00,030.0,028.6,000.0,038.5,031.5,31.6,0002.3,0008.77,0017.28,0007.33
2023-06-28 14:23:00,SystemResetWarning,0830.7,5.00,000.00,030.0,028.6,000.0,038.5,031.6,31.6,0002.4,0008.80,0017.21,0007.31
2023-06-28 14:24:00,SystemResetWarning,0830.6,5.00,000.00,030.0,028.7,000.0,038.5,031.6,32.1,0002.4,0008.78,0017.06,0007.31
2023-06-28 14:25:00,SystemResetWarning,0830.5,5.00,000.00,030.1,028.7,000.0,038.5,031.6,31.9,0002.8,0008.70,0016.48,0007.29
2023-06-28 14:26:00,SystemResetWarning,0830.5,5.00,000.00,030.1,028.7,000.0,038.6,031.7,31.9,0002.9,0008.71,0017.47,0007.30
2023-06-28 14:27:00,SystemResetWarning,0830.6,4.99,000.00,030.1,028.0,000.0,038.6,031.8,31.8,0003.1,0008.76,0017.71,0007.32
2023-06-28 14:28:00,SystemResetWarning,0830.4,4.99,000.00,030.1,026.0,000.0,038.5,031.8,31.9,0002.8,0008.81,0018.01,0007.33
2023-06-28 14:29:00,SystemResetWarning,0830.5,5.01,000.00,030.1,025.0,000.0,038.4,031.6,32.1,0002.9,0008.85,0018.49,0007.35
2023-06-28 14:30:00,SystemResetWarning,0830.4,5.01,000.00,030.0,025.2,000.0,038.4,031.3,32.0,0003.2,0008.87,0018.13,0007.36
2023-06-28 14:31:00,SystemResetWarning,0830.5,5.00,000.00,029.9,025.6,000.0,038.4,031.1,32.2,0003.3,0008.87,0017.96,0007.36
2023-06-28 14:32:00,SystemResetWarning,0830.7,5.00,000.00,029.9,026.1,000.0,038.4,031.1,32.5,0003.3,0008.97,0018.20,0007.38
2023-06-28 14:33:00,SystemResetWarning,0830.4,5.00,000.00,029.8,026.5,000.0,038.4,031.1,32.4,0003.3,0009.01,0019.37,0007.40
2023-06-28 14:34:00,SystemResetWarning,0830.5,5.00,000.00,029.8,026.9,000.0,038.4,031.2,33.1,0003.4,0008.99,0020.78,0007.40
2023-06-28 14:35:00,SystemResetWarning,0830.5,5.00,000.00,029.8,027.2,000.0,038.4,031.2,32.8,0003.2,0009.03,0021.17,0007.41
2023-06-28 14:36:00,SystemResetWarning,0830.6,5.01,000.00,029.8,027.5,000.0,038.4,031.2,32.9,0003.2,0009.08,0021.01,0007.43
2023-06-28 14:37:00,SystemResetWarning,0830.5,5.00,000.00,029.8,027.7,000.0,038.4,031.3,33.1,0003.2,0009.15,0020.61,0007.43
2023-06-28 14:38:00,SystemResetWarning,0830.4,5.00,000.00,029.8,027.9,000.0,038.4,031.3,33.5,0003.2,0009.15,0021.81,0007.42
2023-06-28 14:39:00,SystemResetWarning,0830.5,5.00,000.00,029.9,028.0,000.0,038.4,031.3,33.9,0003.2,0009.18,0021.88,0007.44
2023-06-28 14:40:00,SystemResetWarning,0830.5,5.00,000.00,029.9,028.1,000.0,038.4,031.4,33.4,0003.0,0009.16,0021.88,0007.44
2023-06-28 14:41:00,SystemResetWarning,0830.5,5.00,000.00,029.9,028.3,000.0,038.4,031.4,33.0,0002.8,0009.18,0022.50,0007.45
2023-06-28 14:42:00,SystemResetWarning,0830.5,5.00,000.00,029.9,028.4,000.0,038.4,031.4,33.2,0002.5,0009.23,0023.38,0007.47
2023-06-28 14:43:00,SystemResetWarning,0830.5,5.00,000.00,029.9,028.4,000.0,038.5,031.5,33.2,0002.3,0009.19,0023.29,0007.48
2023-06-28 14:44:00,SystemResetWarning,0830.6,5.00,000.00,030.0,028.5,000.0,038.5,031.5,32.7,0002.1,0009.19,0022.56,0007.48
2023-06-28 14:45:00,SystemResetWarning,0830.7,5.00,000.00,030.0,028.6,000.0,038.5,031.5,33.2,0002.3,0009.25,0021.46,0007.47
2023-06-28 14:46:00,SystemResetWarning,0830.5,5.00,000.00,030.0,028.6,000.0,038.5,031.6,32.4,0002.8,0009.20,0020.88,0007.48
2023-06-28 14:47:00,SystemResetWarning,0830.5,5.01,000.00,030.1,028.4,000.0,038.5,031.7,32.2,0002.8,0009.25,0021.11,0007.49
2023-06-28 14:48:00,SystemResetWarning,0830.5,4.99,000.00,030.1,026.5,000.0,038.5,031.7,32.8,0003.0,0009.21,0021.06,0007.50
2023-06-28 14:49:00,SystemResetWarning,0830.4,5.01,000.00,030.0,025.1,000.0,038.4,031.6,32.8,0003.1,0009.21,0019.55,0007.53
2023-06-28 14:50:00,SystemResetWarning,0830.4,5.01,000.00,030.0,025.1,000.0,038.4,031.4,32.4,0003.3,0009.19,0018.92,0007.54
2023-06-28 14:51:00,SystemResetWarning,0830.6,5.00,000.00,029.9,025.5,000.0,038.4,031.1,33.3,0003.4,0009.18,0018.62,0007.54
2023-06-28 14:52:00,SystemResetWarning,0830.5,5.01,000.00,029.8,025.9,000.0,038.4,031.1,32.9,0003.3,0009.25,0019.88,0007.57
2023-06-28 14:53:00,SystemResetWarning,0830.6,5.00,000.00,029.8,026.4,000.0,038.4,031.1,32.3,0003.5,0009.28,0018.85,0007.61
2023-06-28 14:54:00,SystemResetWarning,0830.4,5.00,000.00,029.8,026.8,000.0,038.4,031.1,32.6,0003.3,0009.32,0019.38,0007.63
2023-06-28 14:55:00,SystemResetWarning,0830.5,5.00,000.00,029.8,027.1,000.0,038.4,031.2,32.6,0003.1,0009.34,0019.36,0007.65
2023-06-28 14:56:00,SystemResetWarning,0830.5,5.00,000.00,029.8,027.4,000.0,038.4,031.2,32.8,0003.0,0009.28,0019.41,0007.68
2023-06-28 14:57:00,SystemResetWarning,0830.6,4.99,000.00,029.8,027.6,000.0,038.4,031.3,33.2,0003.0,0009.34,0019.75,0007.70
2023-06-28 14:58:00,SystemResetWarning,0830.5,4.98,000.00,029.8,027.8,000.0,038.4,031.3,32.9,0003.0,0009.40,0020.64,0007.71
2023-06-28 14:59:00,SystemResetWarning,0830.7,5.02,000.00,029.8,028.0,000.0,038.4,031.3,33.0,0002.4,0009.41,0020.49,0007.72
